History for DABB

Annaba, DZ

Daily Weekly Monthly
Daily Summary for Friday, March 22, 2019
  Actual: Average: Record:
Temperature
Mean Temperature: 53 °F / 12 °C - :  
Max Temperature: 60 °F / 15 °C 67 °F / 19 °C - ()
Min Temperature: 46 °F / 8 °C 48 °F / 9 °C - ()
Degree Days
Heating Degree Days: 12    
Growing Degree Days 3 (Base 50)    
Moisture
Dew Point 51 °F / 10 °C    
Average Humidity 89    
Maximum Humidity 100    
Minimum Humidity 63    
Precipitation
Precipitation 0.01 in / 0.3 cm 0.07 in / 1.8 cm - ()
Sea Level Pressure
Sea Level Pressure 30.07 in / 1018.30 hPa   
Wind
Wind Speed 4 mph / 7 km/h ()  
Max Wind Speed 16 mph / 26 km/h   
Max Gust Speed -   
Visibility 4.7 miles / 7.6 kilometers   
Events Rain   

Key: T is trace of precipitation, MM is missing value
Source: Averaged Metar Reports

Graphs

Observations

History Graphs Observations

Obs Go Here...

Features

Weather Apps

WunderRadio

Weather Underground Apps
Check out our wide variety of mobile and setup applications.

Weather Underground Applications

Top of Page

© Copyright 2019
The Weather Company, LLC
Time(CET)TemperatureDew PointHumidity Sea Level Pressure Visibility Wind DirectionWind SpeedGust SpeedPrecipitationEvents Conditions
12:30 AM 50.0 °F / 10.0 °C 50.0 °F / 10.0 °C 100% 30.04 in / 1017 hPa 3.7 miles / 6.0 kilometers SW 1.2 mph / 1.9 km/h - N/A   Mostly Cloudy
1:00 AM 50 °F / 10 °C 49 °F / 10 °C 96% 30.04 in / 1017 hPa 4 miles / 6 kilometers WSW 1.2 mph / 1.9 km/h - -   Scattered Clouds
1:30 AM 50.0 °F / 10.0 °C 50.0 °F / 10.0 °C 100% 30.04 in / 1017 hPa 3.7 miles / 6.0 kilometers Calm Calm - N/A   Mostly Cloudy
2:00 AM 50.0 °F / 10.0 °C 50.0 °F / 10.0 °C 100% 30.04 in / 1017 hPa 3.7 miles / 6.0 kilometers SSW 1.2 mph / 1.9 km/h - N/A Rain Light Rain
2:30 AM 50.0 °F / 10.0 °C 50.0 °F / 10.0 °C 100% 30.04 in / 1017 hPa 3.7 miles / 6.0 kilometers SW 1.2 mph / 1.9 km/h - N/A Rain Light Rain
3:00 AM 50.0 °F / 10.0 °C 50.0 °F / 10.0 °C 100% 30.01 in / 1016 hPa 3.7 miles / 6.0 kilometers West 1.2 mph / 1.9 km/h - N/A Rain Light Rain
3:30 AM 50.0 °F / 10.0 °C 50.0 °F / 10.0 °C 100% 30.01 in / 1016 hPa 3.7 miles / 6.0 kilometers Calm Calm - N/A   Mostly Cloudy
4:00 AM 50.0 °F / 10.0 °C 50.0 °F / 10.0 °C 100% 30.01 in / 1016 hPa 3.7 miles / 6.0 kilometers South 3.5 mph / 5.6 km/h - N/A   Mostly Cloudy
4:30 AM 50.0 °F / 10.0 °C 50.0 °F / 10.0 °C 100% 30.01 in / 1016 hPa 3.7 miles / 6.0 kilometers SSW 2.3 mph / 3.7 km/h - N/A   Mostly Cloudy
5:00 AM 50.0 °F / 10.0 °C 50.0 °F / 10.0 °C 100% 30.01 in / 1016 hPa 3.7 miles / 6.0 kilometers Calm Calm - N/A   Mostly Cloudy
5:30 AM 50.0 °F / 10.0 °C 50.0 °F / 10.0 °C 100% 30.04 in / 1017 hPa 3.7 miles / 6.0 kilometers SSW 2.3 mph / 3.7 km/h - N/A   Mostly Cloudy
6:00 AM 48.2 °F / 9.0 °C 48.2 °F / 9.0 °C 100% 30.04 in / 1017 hPa 3.7 miles / 6.0 kilometers SSW 2.3 mph / 3.7 km/h - N/A   Scattered Clouds
7:00 AM 48 °F / 9 °C 48 °F / 9 °C 99% 30.07 in / 1018 hPa 2 miles / 4.0 kilometers South 3.5 mph / 5.6 km/h - -   Mist
7:00 AM 48.2 °F / 9.0 °C 48.2 °F / 9.0 °C 100% 30.06 in / 1018 hPa 2.5 miles / 4.0 kilometers South 3.5 mph / 5.6 km/h - N/A   Mostly Cloudy
7:30 AM 48.2 °F / 9.0 °C 48.2 °F / 9.0 °C 100% 30.06 in / 1018 hPa 2.5 miles / 4.0 kilometers South 3.5 mph / 5.6 km/h - N/A   Mostly Cloudy
9:30 AM 53.6 °F / 12.0 °C 51.8 °F / 11.0 °C 94% 30.09 in / 1019 hPa 5.0 miles / 8.0 kilometers SSW 2.3 mph / 3.7 km/h - N/A   Mostly Cloudy
10:00 AM 53 °F / 12 °C 51 °F / 11 °C 92% 30.11 in / 1020 hPa 5 miles / 8 kilometers SW 2.3 mph / 3.7 km/h - -   Mostly Cloudy
10:00 AM 53.6 °F / 12.0 °C 51.8 °F / 11.0 °C 94% 30.09 in / 1019 hPa 5.0 miles / 8.0 kilometers SW 2.3 mph / 3.7 km/h - N/A   Scattered Clouds
10:30 AM 55.4 °F / 13.0 °C 51.8 °F / 11.0 °C 88% 30.09 in / 1019 hPa 5.0 miles / 8.0 kilometers Calm Calm - N/A   Scattered Clouds
11:00 AM 57.2 °F / 14.0 °C 51.8 °F / 11.0 °C 82% 30.12 in / 1020 hPa 6.2 miles / 10.0 kilometers SE 3.5 mph / 5.6 km/h - N/A   Scattered Clouds
11:30 AM 59.0 °F / 15.0 °C 51.8 °F / 11.0 °C 77% 30.12 in / 1020 hPa 6.2 miles / 10.0 kilometers ENE 6.9 mph / 11.1 km/h - N/A   Scattered Clouds
12:00 PM 59.0 °F / 15.0 °C 51.8 °F / 11.0 °C 77% 30.09 in / 1019 hPa 6.2 miles / 10.0 kilometers NE 6.9 mph / 11.1 km/h - N/A   Scattered Clouds
12:30 PM 59.0 °F / 15.0 °C 51.8 °F / 11.0 °C 77% 30.09 in / 1019 hPa 6.2 miles / 10.0 kilometers NNE 6.9 mph / 11.1 km/h - N/A   Scattered Clouds
1:00 PM 59 °F / 15 °C 52 °F / 11 °C 72% 30.12 in / 1020 hPa 9 miles / 15 kilometers NNE 9.2 mph / 14.8 km/h - -   Partly Cloudy
1:30 PM 59.0 °F / 15.0 °C 51.8 °F / 11.0 °C 77% 30.09 in / 1019 hPa 6.2 miles / 10.0 kilometers North 9.2 mph / 14.8 km/h - N/A   Scattered Clouds
2:00 PM 59.0 °F / 15.0 °C 51.8 °F / 11.0 °C 77% 30.09 in / 1019 hPa 6.2 miles / 10.0 kilometers NNE 11.5 mph / 18.5 km/h - N/A   Scattered Clouds
2:30 PM 59.0 °F / 15.0 °C 50.0 °F / 10.0 °C 72% 30.09 in / 1019 hPa 6.2 miles / 10.0 kilometers NNE 13.8 mph / 22.2 km/h - N/A   Scattered Clouds
3:00 PM 59.0 °F / 15.0 °C 50.0 °F / 10.0 °C 72% 30.09 in / 1019 hPa 6.2 miles / 10.0 kilometers NNE 13.8 mph / 22.2 km/h - N/A   Mostly Cloudy
3:30 PM 59.0 °F / 15.0 °C 51.8 °F / 11.0 °C 77% 30.06 in / 1018 hPa 6.2 miles / 10.0 kilometers NNE 15.0 mph / 24.1 km/h - N/A   Mostly Cloudy
4:00 PM 59 °F / 15 °C 50 °F / 10 °C 63% 30.06 in / 1018 hPa 7 miles / 12 kilometers NE 16.1 mph / 25.9 km/h - -   Partly Cloudy
4:00 PM 59.0 °F / 15.0 °C 50.0 °F / 10.0 °C 72% 30.06 in / 1018 hPa 6.2 miles / 10.0 kilometers NE 16.1 mph / 25.9 km/h - N/A   Mostly Cloudy
4:30 PM 59.0 °F / 15.0 °C 50.0 °F / 10.0 °C 72% 30.06 in / 1018 hPa 6.2 miles / 10.0 kilometers NE 16.1 mph / 25.9 km/h - N/A   Mostly Cloudy
5:30 PM 57.2 °F / 14.0 °C 51.8 °F / 11.0 °C 82% 30.06 in / 1018 hPa 5.0 miles / 8.0 kilometers NNE 12.7 mph / 20.4 km/h - N/A   Scattered Clouds
6:30 PM 55.4 °F / 13.0 °C 50.0 °F / 10.0 °C 82% 30.09 in / 1019 hPa 5.0 miles / 8.0 kilometers NE 11.5 mph / 18.5 km/h - N/A   Mostly Cloudy
7:00 PM 55 °F / 13 °C 52 °F / 11 °C 84% 30.10 in / 1019 hPa 5 miles / 8 kilometers NE 12.7 mph / 20.4 km/h - - Rain Light Rain
7:00 PM 55.4 °F / 13.0 °C 51.8 °F / 11.0 °C 88% 30.09 in / 1019 hPa 5.0 miles / 8.0 kilometers NE 12.7 mph / 20.4 km/h - N/A Rain Light Rain
8:00 PM 55.4 °F / 13.0 °C 53.6 °F / 12.0 °C 94% 30.09 in / 1019 hPa 3.7 miles / 6.0 kilometers NNE 11.5 mph / 18.5 km/h - N/A Rain Light Rain
8:30 PM 55.4 °F / 13.0 °C 53.6 °F / 12.0 °C 94% 30.09 in / 1019 hPa 3.7 miles / 6.0 kilometers North 10.4 mph / 16.7 km/h - N/A Rain Light Rain
9:30 PM 55.4 °F / 13.0 °C 53.6 °F / 12.0 °C 94% 30.09 in / 1019 hPa 3.7 miles / 6.0 kilometers NNE 8.1 mph / 13.0 km/h - N/A Rain Light Rain
10:00 PM 54 °F / 12 °C 51 °F / 10 °C 86% 30.12 in / 1020 hPa 4 miles / 6 kilometers ENE 9.2 mph / 14.8 km/h - - Rain Light Rain
10:30 PM 53.6 °F / 12.0 °C 51.8 °F / 11.0 °C 94% 30.09 in / 1019 hPa 3.7 miles / 6.0 kilometers ENE 9.2 mph / 14.8 km/h - N/A Rain Light Rain
11:00 PM 53.6 °F / 12.0 °C 51.8 °F / 11.0 °C 94% 30.12 in / 1020 hPa 3.1 miles / 5.0 kilometers ENE 3.5 mph / 5.6 km/h - N/A Rain Light Rain
11:30 PM 53.6 °F / 12.0 °C 53.6 °F / 12.0 °C 100% 30.12 in / 1020 hPa 3.1 miles / 5.0 kilometers ENE 4.6 mph / 7.4 km/h - N/A Rain Light Rain